Wetbulb
49.58 45.13 42.91 46.11 48.76 49.79 49.67 49.16 48.88 51.53 54.50 52.66 52.24 52.73 54.91 56.20 56.28 56.34 57.42 58.38 58.77 59.08 61.75 63.09 64.19 65.98 67.25 68.26 69.47 70.89 70.43 73.77 72.90 71.02 68.87 67.72 66.13 67.47 67.27 68.03 69.02 69.01 69.02 69.41
46.64 43.07 47.48 48.61 49.03 48.62 48.25 47.56 48.22 51.60 53.75 52.73 52.63 52.20 54.81 55.98 55.95 57.01 57.08 57.96 58.66 59.44 60.84 61.97 63.59 67.39 67.10 67.81 68.81 69.10 69.61 71.91 72.24 70.47 70.15 68.55 68.13 67.12 67.29 67.83 69.20 69.14 69.02 69.54
43.05 46.17 48.75 47.47 46.87 46.53 47.61 46.89 47.81 48.45 51.72 53.21 51.57 49.68 51.53 54.58 56.13 56.55 57.15 58.26 58.94 59.51 59.89 61.67 62.48 66.90 67.06 67.17 68.05 68.44 69.49 70.79 71.48 71.69 70.22 68.79 68.11 68.15 66.89 66.25 66.87 68.44 68.41 68.68
44.86 47.54 47.32 46.58 45.64 47.19 44.51 49.76 49.40 49.04 48.08 44.31 50.89 43.30 49.70 52.65 53.70 55.14 56.34 57.90 58.94 59.54 60.70 61.52 63.11 66.22 66.57 67.07 68.13 68.66 69.52 69.50 69.68 71.34 69.97 70.35 66.43 64.47 65.77 67.66 66.99 68.09 68.09 67.41
42.28 45.02 44.86 45.16 46.11 48.20 46.53 49.73 49.39 49.41 47.14 46.98 46.76 44.28 47.60 51.81 51.23 53.53 56.03 57.24 58.74 59.33 60.19 60.74 64.64 66.04 66.77 67.20 67.61 68.50 68.90 68.71 69.46 69.57 70.68 66.87 67.23 65.45 66.36 66.40 67.13 68.03 68.14 67.52
43.68 48.18 47.76 46.58 48.61 49.17 49.71 48.25 48.86 49.34 47.33 41.45 45.72 44.73 45.92 49.09 51.85 54.26 56.29 57.36 58.46 59.60 60.46 62.72 66.05 66.34 66.10 66.84 67.46 67.90 67.80 67.98 68.68 68.25 68.36 68.40 67.38 66.36 65.78 65.98 66.48 67.40 68.23 67.37
41.16 43.21 47.29 48.92 45.96 48.96 48.66 46.37 40.71 39.87 39.74 40.10 46.94 45.18 47.42 52.87 54.64 55.19 55.86 56.84 58.19 60.72 62.45 63.92 64.41 64.31 65.24 65.90 66.60 66.96 67.33 67.15 67.62 67.49 67.36 67.42 67.57 67.47 66.98 66.32 66.48 66.24 66.19 66.95
36.21 34.53 42.94 47.80 46.36 45.58 46.44 46.34 41.37 35.42 38.57 41.25 47.49 43.49 48.26 54.81 55.00 56.18 57.40 57.79 60.42 62.05 63.31 63.72 64.16 64.53 65.02 65.60 66.27 66.48 66.70 66.35 66.56 66.57 66.75 67.68 68.25 66.93 67.10 66.72 66.07 66.74 66.37 66.97
38.18 37.20 44.39 46.82 48.32 47.62 45.96 44.24 48.79 44.76 46.99 43.60 46.88 49.52 53.16 54.98 55.09 54.71 56.14 57.07 59.97 62.19 63.19 63.50 64.28 64.95 65.08 65.64 66.09 66.61 66.50 66.26 66.27 65.94 67.35 67.51 67.85 67.22 67.09 66.92 67.14 66.21 66.94 65.73
40.70 36.77 42.88 46.16 47.99 48.21 47.71 49.71 43.08 45.58 38.55 39.08 44.43 46.79 47.76 51.37 52.66 54.52 56.48 56.82 60.00 62.62 62.97 63.59 64.23 64.81 65.49 65.98 66.61 66.97 66.63 65.82 65.44 66.61 67.03 66.94 67.36 67.23 67.33 66.72 66.16 66.72 66.12 65.92
42.07 39.28 42.10 44.33 44.66 43.69 44.79 45.18 46.49 47.25 45.88 41.52 40.94 45.20 54.18 53.41 54.25 55.07 57.44 59.14 61.26 62.14 62.73 63.51 64.08 64.90 65.58 66.12 66.30 66.45 65.94 65.07 65.32 66.33 66.57 67.39 66.77 67.07 66.99 65.98 65.60 66.00 65.94 65.52
43.62 40.36 38.48 42.14 47.34 48.44 47.54 46.84 47.20 43.89 43.32 45.73 46.07 45.21 54.18 55.20 56.44 56.56 57.71 60.50 62.20 62.86 62.90 63.47 63.93 64.62 65.01 65.45 65.81 65.53 64.97 64.28 65.35 65.95 66.16 66.36 67.16 67.20 66.80 66.19 66.63 66.23 65.62 65.32
42.18 39.91 35.69 38.53 45.22 46.99 45.21 47.34 49.23 49.09 49.58 45.24 43.51 45.73 54.86 56.09 56.59 57.78 58.94 60.63 61.64 62.08 62.55 63.25 63.79 63.97 64.49 65.20 65.27 64.24 63.99 63.95 64.99 65.74 65.74 66.77 66.93 66.86 66.38 66.40 66.62 65.86 65.20 64.84
41.17 40.16 39.16 34.62 41.21 44.98 43.47 45.74 48.36 48.52 45.03 45.82 46.03 47.94 50.91 54.30 55.74 57.53 59.62 61.11 61.27 61.73 62.30 63.03 63.21 63.80 64.58 64.99 64.27 63.23 63.31 64.17 64.79 65.21 65.26 65.60 66.59 66.23 66.00 66.33 66.41 65.18 65.37 64.90
40.19 37.40 40.77 39.85 41.85 43.96 45.43 45.78 47.60 46.77 48.30 46.24 47.71 47.96 51.43 55.27 56.13 57.97 60.02 60.49 60.78 61.28 61.59 62.45 62.86 63.52 64.34 64.20 63.72 62.86 63.42 63.69 64.59 64.22 65.26 65.95 66.59 66.43 66.05 65.75 65.97 66.25 65.23 66.29
42.36 38.42 40.28 36.09 40.43 43.85 44.30 45.81 47.23 48.20 48.27 48.62 49.11 48.53 53.71 56.48 56.24 56.43 57.43 59.43 60.22 61.00 61.68 62.56 63.21 63.79 63.86 63.49 62.73 62.46 63.15 63.58 64.32 64.28 65.23 65.65 65.84 65.61 65.61 65.68 65.61 66.04 66.02 66.13
38.14 40.24 37.08 33.21 40.52 42.18 40.66 45.70 46.80 47.52 49.67 49.30 46.27 50.04 53.10 52.79 53.81 55.69 57.70 58.16 60.06 61.51 62.12 62.64 63.16 64.02 64.24 63.56 63.16 62.19 62.90 63.73 63.78 64.49 65.49 65.28 65.40 64.82 65.14 65.55 65.36 65.74 65.68 66.48
38.02 38.58 38.21 35.82 38.21 33.06 44.57 50.10 49.40 48.19 49.71 51.03 50.88 51.53 52.74 54.41 55.99 56.45 57.48 59.29 59.10 62.02 62.70 63.42 63.99 64.71 64.93 64.29 63.12 63.02 63.37 63.06 63.29 64.37 65.09 65.31 65.10 65.00 64.61 65.14 65.18 66.24 67.86 66.68
43.56 38.74 35.49 33.32 35.74 42.67 44.44 48.46 47.69 47.48 47.88 52.29 51.38 51.59 53.98 55.19 55.06 55.35 59.30 60.02 61.88 63.57 64.24 64.77 65.31 65.85 65.56 63.87 63.33 62.42 62.91 62.33 62.84 63.85 64.91 65.26 65.45 65.48 65.39 65.39 65.93 67.44 67.26 67.34
42.53 41.68 35.92 37.14 35.06 32.55 41.45 49.32 51.79 52.32 44.66 51.97 52.27 52.61 53.38 54.01 49.98 55.41 58.84 60.16 61.52 64.54 65.21 65.32 65.76 66.14 65.46 64.14 63.73 62.35 62.38 61.77 62.31 63.61 65.15 65.70 65.64 65.63 65.05 66.32 66.56 67.22 67.83 66.86
37.37 37.66 35.25 36.37 38.00 40.93 44.79 50.49 51.31 42.93 43.54 51.81 53.01 53.50 53.51 52.76 55.44 56.95 59.08 59.91 61.73 63.49 65.23 66.42 66.22 65.68 65.67 64.50 63.54 62.07 62.41 61.20 62.90 64.15 65.71 66.15 66.62 66.51 66.92 66.90 67.39 67.43 67.03 66.81
34.60 34.51 36.93 39.45 36.95 34.58 47.75 49.28 46.03 48.04 51.93 52.72 53.26 53.59 53.07 55.10 56.44 57.52 59.30 60.05 61.13 62.07 64.65 65.94 65.66 65.71 65.94 64.53 63.29 62.24 62.07 62.76 63.32 63.91 65.15 66.17 66.61 66.51 66.63 66.64 66.53 66.98 67.37 66.38
35.34 37.34 35.00 37.62 35.16 42.30 47.19 46.32 49.86 51.03 51.97 52.56 53.08 54.08 54.76 55.56 56.56 58.16 59.64 60.74 61.90 62.26 64.04 65.60 65.77 65.89 65.94 64.56 63.61 62.19 62.96 63.02 62.82 63.47 64.79 65.95 66.58 66.40 67.13 66.02 65.87 65.47 66.45 64.46
39.69 41.39 37.65 39.67 39.78 42.45 45.43 47.72 48.78 50.45 51.08 53.90 54.13 54.50 55.16 55.44 57.25 59.09 60.70 61.65 62.11 63.46 63.25 65.13 65.65 65.53 65.02 64.57 63.93 63.56 63.60 63.13 62.63 62.99 64.20 65.54 65.82 65.60 66.33 65.86 64.84 64.68 64.45 64.20
39.43 40.30 38.87 37.96 39.85 44.74 46.30 47.91 48.59 50.00 51.89 53.13 54.27 54.79 54.70 55.51 56.98 58.78 60.36 62.52 63.23 63.81 64.12 64.83 65.28 65.74 65.38 64.83 64.03 63.84 63.80 63.00 62.95 63.53 63.48 64.16 65.60 65.64 65.43 65.66 64.03 63.67 66.22 61.89
41.56 38.77 37.60 36.63 42.05 42.23 44.72 48.10 50.29 50.07 50.80 52.26 52.87 53.94 55.68 56.20 56.41 58.43 59.53 62.10 64.03 64.33 64.70 64.02 65.31 66.02 66.19 65.09 64.16 63.49 63.87 63.10 63.65 64.03 63.00 63.19 63.83 65.22 65.08 64.65 64.23 43.98 47.34 46.63
MSLP
1004.50 1004.48 1001.40 998.49 999.30 998.95 998.92 998.37 997.35 996.95 996.94 997.08 996.37 995.81 995.43 996.38 996.67 996.22 995.76 995.47 995.69 996.27 996.02 996.06 995.95 996.26 997.76 998.44 998.91 999.68 1000.55 1001.27 1001.99 1002.63 1003.32 1003.87 1004.27 1004.74 1004.94 1005.20 1005.61 1006.12 1006.36 1006.69
1003.54 1001.12 997.33 1000.70 999.61 999.44 998.98 998.13 996.81 996.83 996.40 996.34 995.71 995.04 994.95 995.22 995.44 995.43 995.35 994.79 994.78 995.36 995.36 995.10 995.39 996.57 997.82 998.76 999.56 1000.19 1000.77 1001.39 1002.10 1002.63 1003.09 1003.21 1003.79 1004.13 1004.51 1004.67 1005.19 1005.81 1006.12 1006.29
1001.49 997.32 1000.95 999.38 998.83 998.34 997.59 997.34 997.23 996.62 996.73 996.19 995.88 994.79 994.46 994.83 995.06 995.11 994.82 994.60 994.60 994.49 994.36 994.57 994.92 996.57 997.76 998.96 999.82 1000.24 1000.92 1001.67 1002.25 1002.53 1002.93 1003.46 1003.84 1004.06 1004.51 1004.61 1005.04 1005.26 1005.93 1006.39
1000.47 999.59 998.66 998.53 997.48 997.19 996.23 996.97 997.24 997.11 996.91 995.73 996.23 993.44 993.70 993.83 993.55 993.70 993.65 993.38 993.12 993.33 993.59 993.91 994.31 996.45 997.86 999.03 999.92 1000.56 1001.30 1001.98 1002.23 1002.62 1002.97 1003.42 1003.51 1003.65 1003.58 1003.97 1004.24 1004.98 1005.57 1005.99
998.42 998.78 998.07 997.08 995.12 997.11 994.36 996.76 996.52 996.82 996.85 996.65 995.63 994.60 993.05 993.26 992.57 992.60 992.42 992.41 992.32 992.46 992.84 993.02 994.09 996.36 997.80 999.04 999.90 1000.70 1001.49 1001.96 1002.34 1002.81 1002.90 1003.45 1003.38 1003.46 1003.81 1004.08 1004.77 1005.52 1005.79 1006.19
999.26 998.70 997.27 996.35 996.51 995.90 996.39 996.24 996.15 996.26 996.40 995.38 994.74 994.53 991.90 991.80 991.62 991.10 991.07 991.08 991.23 991.39 991.89 992.74 994.59 996.55 997.92 999.05 1000.02 1000.79 1001.51 1001.97 1002.57 1002.81 1003.10 1003.37 1003.61 1003.82 1003.82 1004.38 1004.74 1005.49 1006.11 1006.25
999.75 998.36 997.04 996.05 995.68 995.57 995.19 995.38 995.16 995.32 994.73 992.39 993.82 993.04 990.84 990.88 990.60 990.31 990.13 990.53 990.66 991.02 992.13 993.84 995.47 996.70 997.97 999.04 999.91 1000.80 1001.45 1002.10 1002.62 1002.97 1003.30 1003.53 1003.88 1004.18 1004.48 1004.68 1005.12 1005.33 1005.78 1006.25
999.42 998.10 996.83 994.99 994.00 993.63 993.84 993.80 992.86 992.24 992.16 992.23 992.32 990.86 990.00 989.81 989.88 989.68 989.89 990.30 990.81 992.11 993.09 994.56 995.67 996.79 997.88 998.93 999.76 1000.42 1001.34 1001.96 1002.55 1002.95 1003.26 1003.49 1003.91 1003.93 1004.32 1004.79 1004.81 1005.18 1005.52 1005.93
1000.55 996.90 996.09 995.26 994.42 993.96 992.57 992.50 991.58 992.45 991.03 990.54 989.35 989.22 989.61 989.19 989.12 989.29 989.23 990.13 990.91 992.38 993.66 994.73 995.76 996.82 997.83 998.85 999.65 1000.39 1001.11 1001.82 1002.41 1002.85 1003.18 1003.54 1003.94 1003.98 1004.57 1004.87 1004.99 1005.20 1005.65 1005.51
1002.72 998.47 995.52 994.10 994.59 993.26 991.62 991.74 992.76 991.96 990.70 989.30 988.89 987.94 987.93 987.98 987.98 988.76 989.00 989.93 991.02 992.65 993.76 994.66 995.78 996.81 997.91 998.91 999.70 1000.38 1001.11 1001.74 1002.29 1002.74 1003.13 1003.44 1003.93 1004.50 1004.56 1004.86 1004.87 1005.47 1005.51 1005.24
1003.68 1001.15 996.24 994.41 992.10 991.76 991.15 990.41 991.07 991.27 990.16 989.10 988.53 987.65 987.57 987.65 987.94 988.38 988.76 989.76 991.27 992.62 993.53 994.65 995.72 996.90 997.95 998.94 999.57 1000.34 1000.94 1001.56 1002.15 1002.62 1002.98 1003.41 1003.78 1004.45 1004.45 1004.95 1005.06 1005.58 1005.78 1005.59
1002.94 1001.66 997.32 993.61 992.16 991.86 990.93 990.11 990.53 989.59 989.29 989.00 987.92 987.81 988.15 988.36 987.78 988.20 988.52 989.79 991.30 992.44 993.45 994.57 995.64 996.72 997.87 998.64 999.53 1000.22 1000.82 1001.27 1002.01 1002.43 1002.80 1003.20 1003.82 1004.43 1004.68 1005.08 1005.32 1005.36 1005.59 1005.52
1004.44 1001.58 997.91 995.55 993.12 991.28 989.99 989.69 989.66 990.32 989.42 988.78 987.82 987.57 988.50 988.25 988.34 988.69 989.04 990.44 991.57 992.45 993.46 994.53 995.62 996.57 997.46 998.37 999.34 1000.05 1000.63 1001.06 1001.73 1002.04 1002.53 1003.21 1003.87 1004.52 1004.78 1005.06 1005.41 1005.15 1005.32 1005.39
1006.18 1002.78 998.53 997.05 994.00 991.49 989.86 989.02 988.79 989.11 988.77 988.25 987.98 987.87 988.22 988.19 988.62 989.16 989.89 990.88 991.75 992.67 993.54 994.44 995.54 996.33 997.18 998.17 999.06 999.82 1000.27 1000.86 1001.40 1001.76 1002.24 1003.09 1004.11 1004.29 1004.77 1005.07 1005.42 1005.26 1005.16 1005.33
1005.53 1002.19 999.39 998.17 996.71 993.25 989.93 988.48 987.83 988.15 988.33 987.61 988.05 987.93 987.97 988.26 989.12 989.83 990.49 991.24 992.02 992.63 993.50 994.42 995.30 996.14 996.97 998.04 998.86 999.57 1000.05 1000.67 1001.28 1001.62 1002.07 1003.22 1003.92 1004.18 1004.55 1005.12 1005.45 1005.64 1005.55 1005.53
1004.55 1002.14 1000.41 1000.04 998.29 994.44 989.50 988.78 988.10 988.13 988.76 988.36 987.73 988.33 988.25 988.90 989.59 990.13 990.68 991.33 991.96 992.50 993.28 994.21 995.07 995.97 996.84 997.89 998.61 999.39 999.93 1000.57 1001.16 1001.51 1002.07 1003.01 1003.34 1003.86 1004.62 1005.01 1005.43 1005.74 1005.74 1005.77
1003.85 1002.22 1001.57 999.98 998.00 994.37 990.35 988.48 987.94 988.34 989.01 988.85 988.63 988.99 988.96 989.54 990.42 990.61 991.08 991.56 991.76 992.25 993.06 993.99 994.85 995.71 996.68 997.71 998.48 999.32 999.90 1000.54 1001.09 1001.38 1002.01 1002.57 1003.30 1003.85 1004.33 1004.62 1004.98 1005.29 1005.73 1005.95
1003.36 1002.60 1001.76 999.68 998.03 993.96 991.01 989.39 988.49 988.95 989.64 990.16 989.92 990.30 990.19 990.86 991.69 992.05 992.68 992.70 992.08 992.02 992.83 993.95 994.87 995.76 996.71 997.51 998.36 999.28 999.91 1000.41 1000.83 1001.18 1001.73 1002.41 1003.02 1003.60 1004.21 1004.54 1004.92 1005.37 1005.88 1006.09
1002.20 1002.56 1002.12 1000.59 997.80 994.10 992.06 990.90 990.02 989.84 991.30 992.24 991.90 991.48 991.93 992.91 993.44 993.50 994.30 994.23 993.23 992.12 992.55 993.63 994.59 995.70 996.80 997.55 998.23 999.11 999.71 1000.16 1000.52 1000.96 1001.50 1002.09 1002.73 1003.40 1004.29 1004.86 1005.31 1005.67 1006.22 1006.53
1001.93 1002.50 1003.12 1000.88 998.72 997.18 996.71 994.03 993.45 992.42 993.57 995.23 994.89 994.42 994.64 995.06 994.35 994.92 995.47 995.02 993.96 992.99 992.27 993.33 994.32 995.47 996.59 997.55 998.43 998.90 999.38 999.91 1000.25 1000.70 1001.25 1001.78 1002.50 1003.27 1004.05 1004.84 1005.45 1005.76 1006.22 1006.48
1002.88 1003.54 1002.65 1001.11 999.61 999.11 998.81 996.05 995.09 994.66 997.55 997.26 996.85 996.63 996.58 996.40 996.13 996.50 995.97 995.28 994.65 993.78 992.47 993.32 994.19 995.23 996.45 997.46 998.38 998.79 999.15 999.61 1000.03 1000.54 1001.14 1001.74 1002.56 1003.31 1004.06 1004.87 1005.45 1005.95 1006.26 1006.66
1004.57 1004.18 1003.27 1002.21 1001.57 1001.18 999.95 998.00 996.87 998.71 998.42 998.29 998.04 998.04 997.84 997.47 996.91 996.37 995.66 995.16 994.67 994.11 993.08 993.21 993.99 995.06 996.28 997.23 998.12 998.60 998.99 999.42 999.86 1000.39 1001.06 1001.64 1002.77 1003.19 1004.16 1005.02 1005.38 1005.88 1006.39 1006.79
1006.04 1005.59 1005.16 1004.78 1004.66 1003.61 1001.75 1001.04 1000.45 999.97 999.20 999.04 998.75 998.52 998.14 997.46 996.83 996.25 995.55 995.01 994.35 994.02 993.38 993.05 993.70 994.85 996.00 996.84 997.66 998.19 998.85 999.24 999.63 1000.25 1000.98 1001.76 1002.61 1003.12 1004.04 1004.92 1005.37 1005.56 1006.03 1006.45
1006.81 1006.64 1005.91 1005.31 1005.42 1003.81 1002.70 1001.99 1001.68 1001.22 1000.50 999.64 999.13 998.69 998.21 997.57 996.83 996.12 995.37 994.76 994.20 993.55 993.50 992.93 993.29 994.29 995.51 996.44 997.29 997.84 998.55 999.03 999.45 1000.11 1000.95 1001.83 1002.63 1003.06 1003.98 1004.65 1005.27 1005.18 1005.44 1005.41
1007.66 1007.24 1006.48 1006.10 1005.83 1004.17 1002.89 1002.77 1002.41 1001.77 1001.19 1000.11 999.51 998.86 998.27 997.74 997.07 996.46 995.54 994.68 994.04 993.58 993.20 993.05 993.03 993.78 994.99 995.99 996.76 997.44 998.07 998.66 999.21 1000.06 1000.81 1001.63 1002.32 1003.06 1003.77 1004.24 1004.95 1004.94 1005.13 1005.43
1007.20 1007.40 1006.91 1006.63 1006.13 1005.43 1004.19 1003.27 1002.46 1001.84 1001.34 1000.72 999.94 999.03 998.30 997.85 997.41 996.71 995.78 994.94 994.10 993.65 993.26 992.98 992.97 993.31 994.17 995.25 996.09 996.81 997.52 998.22 998.94 999.83 1000.54 1001.20 1001.68 1002.71 1003.09 1003.77 1004.80 1005.74 1005.96 1005.93
Wind_Speed
25 20 29 43 36 32 29 27 31 32 27 29 31 31 24 21 26 26 26 25 18 24 23 21 17 5 4 7 6 9 12 13 12 12 12 11 10 8 7 7 8 7 7 5
25 32 47 25 32 32 33 32 33 28 24 23 27 27 27 24 25 24 28 28 23 22 26 21 13 5 5 7 9 12 13 14 13 10 9 8 7 8 8 7 6 6 8 8
31 44 24 32 30 32 33 33 29 30 23 22 23 27 29 26 25 26 28 28 26 26 24 19 16 7 7 9 11 13 14 15 13 11 7 5 6 2 4 6 7 9 7 3
28 33 33 32 35 34 33 29 27 25 21 20 21 25 25 20 23 24 25 22 21 20 19 19 9 10 9 10 11 14 15 16 13 11 9 9 7 7 4 2 2 2 4 7
32 28 33 36 42 32 36 25 26 26 21 23 26 21 16 20 21 21 21 22 23 21 21 19 13 12 11 12 13 15 16 15 13 11 9 8 6 6 3 3 1 4 3 5
31 28 28 39 32 28 29 27 25 20 18 22 23 22 19 22 20 21 20 20 19 19 17 6 13 13 13 14 15 16 17 14 13 10 9 7 6 1 2 4 0 2 3 3
29 30 27 29 32 35 28 26 16 18 19 22 16 21 21 19 20 18 15 16 12 7 9 12 15 15 16 17 17 16 16 15 13 11 9 7 5 3 4 3 4 4 2 3
23 28 34 28 28 35 32 29 17 29 14 17 23 18 13 16 5 8 15 10 8 9 11 14 16 17 18 18 18 17 16 15 13 11 9 7 6 7 3 3 5 5 2 4
17 28 30 34 24 27 39 30 33 24 20 14 15 17 19 17 16 8 10 16 12 11 13 16 18 17 18 17 17 16 15 14 12 11 8 7 6 0 4 3 2 5 4 4
17 21 29 27 30 33 32 27 24 22 26 19 13 11 8 5 10 12 12 16 14 14 16 17 17 18 17 16 15 15 14 13 12 11 9 8 7 4 4 3 0 5 3 3
20 6 20 34 32 31 25 25 29 21 20 14 12 12 7 4 4 15 14 16 16 17 17 18 17 17 17 16 15 14 13 12 11 10 9 7 7 6 5 4 3 6 5 4
12 8 16 22 28 31 31 29 30 18 24 17 12 4 5 9 10 13 8 12 17 17 18 18 18 18 17 16 15 14 12 12 11 10 8 8 7 5 5 4 3 8 7 5
7 12 14 6 16 31 31 32 26 28 18 19 11 6 7 7 3 4 10 14 16 18 18 18 18 17 16 15 15 13 12 12 11 10 8 8 5 5 5 5 4 7 6 5
7 13 19 6 10 21 30 34 30 27 17 18 18 14 13 13 10 7 12 15 16 16 18 17 17 16 16 15 15 13 12 12 11 9 8 9 4 6 6 6 4 3 7 6
5 18 23 4 22 28 27 30 27 31 22 16 20 11 12 16 14 11 12 13 15 17 17 17 16 16 16 15 14 13 12 12 10 9 9 9 7 7 8 6 6 5 2 2
6 13 19 9 20 29 19 29 25 26 20 19 13 16 10 15 12 10 10 13 15 16 17 17 17 17 16 16 14 13 12 12 11 9 12 8 9 8 9 9 7 5 5 4
9 11 3 6 18 25 16 22 28 22 25 17 11 9 10 5 5 4 11 3 13 15 15 17 17 17 16 15 14 14 13 12 11 10 12 10 10 9 9 9 9 9 7 7
10 14 4 4 14 11 11 12 18 21 20 18 12 13 7 10 10 10 10 13 4 12 15 15 14 15 16 16 15 13 14 13 12 11 11 12 11 10 8 8 7 7 6 4
13 5 5 3 10 16 3 5 3 19 12 13 8 5 11 10 6 2 10 10 11 11 14 14 14 15 15 16 16 15 14 14 13 12 11 12 12 10 11 7 6 5 7 6
7 4 2 6 8 5 8 9 7 3 13 9 7 7 8 8 8 10 9 10 11 14 14 14 16 15 16 16 16 16 15 14 13 13 12 12 12 10 10 10 7 6 6 5
4 3 9 9 9 9 12 13 2 11 9 5 7 7 6 7 11 11 10 7 7 9 7 14 16 16 16 16 16 16 15 15 14 13 12 12 11 10 10 7 8 7 5 9
3 2 5 5 4 5 19 5 5 7 6 7 7 9 6 7 9 10 8 7 6 6 10 15 15 16 16 17 16 16 15 15 14 14 14 13 13 10 10 9 7 9 8 8
1 4 4 5 2 11 7 13 13 13 8 9 8 8 8 9 9 9 7 7 6 6 9 13 15 17 17 18 17 16 15 16 15 15 14 13 12 10 11 9 8 7 8 8
5 7 4 3 6 9 11 13 13 10 12 10 9 8 8 9 10 10 8 6 6 6 8 12 16 18 18 18 18 16 16 16 16 15 15 13 12 11 11 9 8 8 7 7
5 6 8 2 7 9 1 11 11 9 12 14 11 10 10 10 11 11 10 7 5 6 7 11 15 17 19 19 18 17 17 17 15 15 14 14 12 11 11 9 7 7 7 2
4 4 3 3 4 5 11 14 9 10 12 12 13 12 10 10 12 12 11 10 7 6 7 10 14 16 19 20 19 19 19 18 16 14 13 12 12 12 11 10 8 11 9 10
Wind_Direction
201 208 218 219 218 236 243 246 247 249 249 237 255 270 262 256 262 264 266 263 260 266 278 277 276 260 274 258 217 186 184 187 171 181 186 191 189 201 201 213 216 235 246 256
217 218 222 221 230 227 243 249 249 258 259 256 258 261 268 260 262 262 268 271 267 266 274 272 266 126 201 196 186 180 183 169 178 174 194 186 197 190 208 206 201 223 253 260
222 227 227 226 230 232 231 236 245 255 262 262 267 269 264 264 264 270 265 270 272 264 265 267 251 156 168 182 180 172 170 164 180 174 177 167 168 198 191 214 216 212 226 246
235 238 231 226 232 227 235 228 241 253 260 256 249 266 257 262 264 259 263 263 258 259 257 250 211 153 168 169 165 159 156 165 174 160 154 170 184 204 200 224 331 352 224 260
241 229 232 241 225 228 243 236 236 237 248 263 254 259 271 270 267 268 264 257 257 258 250 246 149 158 163 158 157 153 155 167 147 181 166 171 225 173 229 226 175 235 267 274
244 248 235 233 245 229 238 235 241 237 239 246 245 253 260 266 269 267 262 254 248 238 229 157 132 145 148 155 151 149 156 151 159 161 154 213 144 297 273 203 338 277 240 248
243 248 247 242 220 235 224 222 219 227 225 243 236 242 262 279 276 271 274 249 261 85 123 147 151 152 154 150 147 151 151 151 158 157 158 158 159 177 201 260 230 220 223 227
224 225 233 232 228 214 224 213 213 210 214 233 222 242 260 249 266 286 238 247 141 171 148 157 156 150 150 148 150 149 152 153 157 159 162 156 151 187 199 199 333 78 176 193
294 235 223 228 223 239 209 217 218 243 238 248 238 213 232 250 252 241 221 193 148 158 155 156 146 152 149 151 152 150 152 153 161 157 162 157 168 94 79 69 230 115 180 164
285 278 222 222 216 238 234 208 206 221 243 233 245 215 244 171 205 179 177 177 153 153 157 150 150 148 149 150 148 150 155 156 157 160 160 169 155 169 144 152 82 75 166 116
280 265 260 214 205 214 215 209 213 219 228 231 237 238 197 176 215 179 177 157 151 162 157 151 148 149 148 152 149 153 152 157 157 161 175 145 148 182 150 143 157 132 167 178
262 292 258 226 217 216 216 214 204 223 212 236 256 146 84 185 200 188 167 127 152 161 154 154 151 153 153 155 152 156 155 156 160 174 168 167 149 178 140 172 148 150 186 190
8 238 254 259 249 195 221 209 205 219 223 209 230 146 161 158 119 162 125 145 152 155 157 153 154 158 156 155 159 157 160 160 165 179 163 134 143 152 157 155 165 176 158 174
295 261 259 253 255 198 214 203 206 201 218 194 227 119 174 155 141 146 124 144 153 160 159 156 163 160 158 158 160 157 167 161 164 174 167 127 154 140 160 131 155 188 171 174
261 249 243 274 294 301 211 207 197 193 206 203 196 193 164 123 103 103 133 155 157 164 167 162 168 162 159 161 159 160 167 160 163 165 135 119 163 158 138 135 149 164 134 290
256 275 254 279 274 281 209 214 202 196 199 223 182 193 164 129 129 130 130 170 173 171 175 168 169 165 162 163 163 162 163 158 163 167 121 155 142 142 132 155 147 162 150 158
295 281 229 236 257 261 213 203 195 199 194 215 192 196 204 148 140 124 73 110 187 179 177 174 174 169 163 164 165 165 163 160 163 170 142 139 143 143 151 155 159 157 141 162
260 287 248 269 249 219 201 205 199 192 194 203 224 195 158 52 38 31 356 345 250 190 174 174 177 169 163 161 163 166 163 166 166 167 154 143 159 153 150 156 149 148 126 132
229 261 274 253 231 103 67 141 171 186 144 28 323 268 35 40 348 166 38 342 332 294 167 174 173 167 166 166 159 168 166 171 170 163 164 155 153 155 141 152 162 134 137 148
194 200 235 262 230 168 319 15 19 348 102 41 6 22 9 347 243 89 356 339 337 318 165 171 170 166 168 170 165 171 169 175 175 164 172 158 157 161 136 146 159 145 154 118
191 259 245 260 245 115 335 322 292 210 78 31 31 37 4 317 341 325 309 319 315 302 202 169 167 169 171 170 171 180 171 178 176 163 171 152 146 154 127 135 139 153 152 114
299 228 215 231 237 102 340 53 6 56 73 41 28 33 359 327 310 301 308 302 290 279 247 175 170 170 172 173 176 186 177 178 175 165 169 157 148 172 141 146 155 148 134 128
233 357 319 38 43 294 25 53 38 9 38 29 14 12 356 340 342 314 305 293 270 249 249 185 175 172 175 178 180 187 180 181 175 168 169 166 160 173 145 156 160 147 167 143
12 8 328 306 11 321 53 36 21 13 352 359 8 5 356 349 338 336 321 308 284 243 221 209 182 177 177 181 183 189 179 185 176 170 169 168 173 172 160 168 176 159 187 173
1 346 338 19 6 308 256 8 354 4 351 345 360 349 3 347 351 346 332 325 297 259 229 221 194 180 179 182 185 187 180 186 176 173 172 174 180 183 167 194 177 185 179 188
59 357 355 358 5 301 305 316 351 346 344 334 342 338 353 349 349 347 348 342 336 282 245 209 205 190 180 183 187 186 182 184 176 175 178 179 183 181 179 188 158 52 56 82